Regional Weather Roundup
Issued by NWS

Home | Current Version | Previous Version | Text Only | Print | Product List | Glossary Off
Versions: 1 2 3 4 5 6 7 8 9 10 11 12 13 14 15 16 17 18 19 20 21 22 23 24 25 26 27 28 29 30 31 32 33 34 35 36 37 38 39 40 41 42 43 44 45 46 47 48 49 50

000
ASUS43 KDTX 030310
RWRMI
MICHIGAN HOURLY REGIONAL WEATHER ROUNDUP
NATIONAL WEATHER SERVICE DETROIT/PONTIAC MI
1100 PM EDT MON MAY 02 2016

NOTE: "FAIR" INDICATES FEW OR NO CLOUDS BELOW 12,000 FEET WITH NO
SIGNIFICANT WEATHER AND/OR OBSTRUCTION TO VISIBILITY.

MIZ047>049-052>055-059>063-066>070-074>076-081>083-030400-
SOUTHEAST LOWER MICHIGAN

CITY           SKY/WX    TMP DP  RH WIND       PRES   REMARKS
ADRIAN         CLOUDY    50  45  83 CALM      29.98S
ALMA           CLEAR     42  40  92 NW7       29.99F
ANN ARBOR      CLOUDY    48  45  89 SW3       29.97F
BAD AXE        CLEAR     40  32  73 CALM      29.98F
CARO           CLEAR     40  36  85 CALM      29.97F
DETROIT CITY   CLEAR     48  40  73 CALM      29.99S
DETROIT        MOCLDY    51  44  77 SE5       29.98F
FLINT          CLEAR     49  42  77 CALM      29.99S
GROSSE ILE     CLOUDY    48  46  93 CALM      29.97S
HILLSDALE      CLOUDY    48  45  89 CALM      29.98S
HOWELL         CLOUDY    50  43  76 NW3       29.98S

CITY           SKY/WX    TMP DP  RH WIND       PRES   REMARKS
JACKSON        CLOUDY    49  46  90 SW5       29.98S
LAMBERTVILLE   CLOUDY    50  47  90 CALM      29.99R
LANSING        MOCLDY    49  42  77 W3        29.99F
LAPEER         FAIR      42  39  90 CALM      29.98F
MASON          CLOUDY    49  44  81 CALM      29.98F
MONROE         CLOUDY    49  48  95 S8        29.98R FOG
PONTIAC        PTCLDY    48  40  73 NE5       29.96F
PORT HOPE        N/A     40  34  79 CALM      29.97F
PORT HURON     CLEAR     41  37  87 CALM      29.98F
TRI CITIES     CLEAR     47  33  58 N6        29.99F
MIDLAND        FAIR      42  32  68 CALM      29.99S
TROY           CLEAR     50  43  77 NE5       30.00S
SAGINAW HB     CLEAR     45  32  61 N3        29.98F
$$
MIZ043>046-050>051-056>058-064>065-071>073-077>080-030400-
SOUTHWEST LOWER MICHIGAN

CITY           SKY/WX    TMP DP  RH WIND       PRES   REMARKS
BATTLE CREEK   CLOUDY    50  43  77 CALM      30.00S
BENTON HARBOR  PTCLDY    45  38  76 CALM      30.01S
BIG RAPIDS     CLOUDY    49  33  54 W5        30.00S
COLDWATER      CLOUDY    49  47  92 CALM      29.99S
FREMONT        FAIR      46  39  79 CALM      30.00S
HOLLAND        CLEAR     44  39  82 CALM      30.01S
GRAND RAPIDS   PTCLDY    48  41  76 CALM      30.00S
IONIA          FAIR      45  42  88 NW3       29.99S
KALAMAZOO      CLOUDY    51  43  74 CALM      30.00S
LUDINGTON      CLEAR     44  33  63 CALM      30.00S
MARSHALL       CLOUDY    48  46  90 CALM      29.99S
MOUNT PLEASANT CLEAR     44  39  82 CALM      29.99F
MUSKEGON       MOCLDY    45  38  76 CALM      30.01S
SOUTH HAVEN    CLEAR     42  39  90 CALM      30.01S
$$
MIZ016>042-030400-
NORTHERN LOWER MICHIGAN

CITY           SKY/WX    TMP DP  RH WIND       PRES   REMARKS
ALPENA         CLEAR     42  33  70 CALM      29.99S
BEAVER ISLAND  CLEAR     39  32  76 CALM      29.99F
BELLAIRE       CLEAR     43  34  70 CALM      30.00S
CADILLAC       CLEAR     43  31  63 CALM      29.99S
CHARLEVOIX     CLEAR     44  34  66 CALM      30.02F
FRANKFORT      CLEAR     42  33  70 CALM      29.99F
GAYLORD        CLEAR     50  28  42 CALM      29.99F
GRAYLING       CLEAR     48  30  49 CALM      30.00S
HARBOR SPRINGS CLEAR     40  35  81 CALM      29.99F
HOUGHTON LAKE  CLEAR     44  34  67 CALM      30.00S
MANISTEE       CLEAR     43  30  61 CALM      30.00S
OSCODA         CLEAR     43  33  68 SW3       29.98S
PELLSTON       CLEAR     40  31  70 CALM      29.99F
ROGERS CITY    CLEAR     44  32  64 NW3       30.00S
TRAVERSE CITY  CLEAR     44  35  70 CALM      29.98F
$$
MIZ007>008-015-030400-
EASTERN UPPER MICHIGAN

CITY           SKY/WX    TMP DP  RH WIND       PRES   REMARKS
KINROSS          N/A     41  34  75 N5        29.98F
MACKINAC ISLAN CLEAR     46  33  60 N3        29.98F
NEWBERRY       CLEAR     43  33  66 CALM      29.99S
S. S. MARIE    CLEAR     43  31  62 W3        29.98F
MUNISING         N/A     38  32  79 S6        29.99F WCI  33
$$
MIZ004>006-011>014-085-030400-
CENTRAL UPPER MICHIGAN

CITY           SKY/WX    TMP DP  RH WIND       PRES   REMARKS
MANISTIQUE     CLEAR     38  32  80 W3        29.99F
ESCANABA       CLEAR     41  34  75 CALM      30.00S
MENOMINEE      CLEAR     46  34  61 CALM      29.99S
SAWYER-GWINN   CLEAR     41  31  66 CALM      29.97F
$$
MIZ001>003-009>011-084-030400-
WESTERN UPPER MICHIGAN

CITY           SKY/WX    TMP DP  RH WIND       PRES   REMARKS
IRON MOUNTAIN  CLEAR     49  30  48 SE5       29.98S
HOUGHTON       CLEAR     42  33  70 CALM      29.96F
COPPER HARBOR    N/A     45  34  65 CALM      29.96F
IRONWOOD         N/A     43  36  75 CALM      29.97S
$$

ABBREVIATIONS USED IN REMARKS
   TC - TEMPERATURE IN CELSIUS
  WCI - WIND CHILL INDEX
   HX - HEAT INDEX
  VSB - VISIBILITY




USA.gov is the U.S. government's official web portal to all federal, state and local government web resources and services.